Time,TemperatureF,DewpointF,PressureIn,WindDirection,WindDirectionDegrees,WindSpeedMPH,WindSpeedGustMPH,Humidity,HourlyPrecipIn,Conditions,Clouds,dailyrainin,SolarRadiationWatts/m^2,SoftwareType,DateUTC
2013-02-15 00:10:00,10.6,6.2,30.41,NW,316,1.0,1.0,82,0.00,,,0.00,0,Wunderground v.1.15,2013-02-15 07:10:00,
2013-02-15 00:21:00,10.2,5.5,30.41,NW,316,0.0,0.0,81,0.00,,,0.00,0,Wunderground v.1.15,2013-02-15 07:21:00,
2013-02-15 00:30:00,9.8,5.1,30.41,NW,316,0.0,0.0,81,0.00,,,0.00,0,Wunderground v.1.15,2013-02-15 07:30:00,
2013-02-15 00:40:00,8.8,4.2,30.41,WNW,284,1.0,1.0,81,0.00,,,0.00,0,Wunderground v.1.15,2013-02-15 07:40:00,
2013-02-15 00:50:00,8.1,3.5,30.41,WSW,250,1.0,1.0,81,0.00,,,0.00,0,Wunderground v.1.15,2013-02-15 07:50:00,
2013-02-15 01:00:00,9.4,5.3,30.40,NNW,338,1.0,4.0,83,0.00,,,0.00,0,Wunderground v.1.15,2013-02-15 08:00:00,
2013-02-15 01:10:00,13.9,7.7,30.41,WNW,297,4.0,4.0,76,0.00,,,0.00,0,Wunderground v.1.15,2013-02-15 08:10:00,
2013-02-15 01:20:00,16.4,7.7,30.41,NW,323,5.0,5.0,68,0.00,,,0.00,0,Wunderground v.1.15,2013-02-15 08:20:00,
2013-02-15 01:30:00,17.0,7.3,30.41,North,355,5.0,5.0,65,0.00,,,0.00,0,Wunderground v.1.15,2013-02-15 08:30:00,
2013-02-15 01:40:00,17.5,7.7,30.41,NNW,343,6.0,13.0,65,0.00,,,0.00,0,Wunderground v.1.15,2013-02-15 08:40:00,
2013-02-15 01:50:00,17.8,8.4,30.41,WNW,284,8.0,8.0,66,0.00,,,0.00,0,Wunderground v.1.15,2013-02-15 08:50:00,
2013-02-15 02:00:00,17.5,8.7,30.42,NNW,346,5.0,5.0,68,0.00,,,0.00,0,Wunderground v.1.15,2013-02-15 09:00:00,
2013-02-15 02:10:00,17.1,8.7,30.42,NNW,329,1.0,1.0,69,0.00,,,0.00,0,Wunderground v.1.15,2013-02-15 09:10:00,
2013-02-15 02:20:00,16.7,8.3,30.41,East,97,3.0,3.0,69,0.00,,,0.00,0,Wunderground v.1.15,2013-02-15 09:20:00,
2013-02-15 02:30:00,16.6,8.2,30.41,SSE,148,4.0,4.0,69,0.00,,,0.00,0,Wunderground v.1.15,2013-02-15 09:30:00,
2013-02-15 02:40:00,16.3,7.9,30.41,SSW,211,2.0,2.0,69,0.00,,,0.00,0,Wunderground v.1.15,2013-02-15 09:40:00,
2013-02-15 02:50:00,16.3,7.9,30.41,WSW,244,2.0,2.0,69,0.00,,,0.00,0,Wunderground v.1.15,2013-02-15 09:50:00,
2013-02-15 03:10:00,16.3,7.6,30.41,SW,223,4.0,4.0,68,0.00,,,0.00,0,Wunderground v.1.15,2013-02-15 10:10:00,
2013-02-15 03:30:00,16.4,8.0,30.41,North,355,8.0,8.0,69,0.00,,,0.00,0,Wunderground v.1.15,2013-02-15 10:30:00,
2013-02-15 03:50:00,16.2,7.5,30.41,West,275,6.0,6.0,68,0.00,,,0.00,0,Wunderground v.1.15,2013-02-15 10:50:00,
2013-02-15 04:10:00,16.2,7.2,30.43,WNW,292,6.0,6.0,67,0.00,,,0.00,0,Wunderground v.1.15,2013-02-15 11:10:00,
2013-02-15 04:30:00,16.2,7.2,30.44,SW,224,3.0,3.0,67,0.00,,,0.00,0,Wunderground v.1.15,2013-02-15 11:30:00,
2013-02-15 04:50:00,15.9,7.5,30.45,SW,229,1.0,2.0,69,0.00,,,0.00,0,Wunderground v.1.15,2013-02-15 11:50:00,
2013-02-15 05:10:00,15.5,8.7,30.46,SW,229,1.0,1.0,74,0.00,,,0.00,0,Wunderground v.1.15,2013-02-15 12:10:00,
2013-02-15 05:21:00,15.3,8.5,30.46,SW,229,0.0,0.0,74,0.00,,,0.00,0,Wunderground v.1.15,2013-02-15 12:21:00,
2013-02-15 05:30:00,15.0,8.5,30.46,SW,229,0.0,0.0,75,0.00,,,0.00,0,Wunderground v.1.15,2013-02-15 12:30:00,
2013-02-15 05:50:00,14.6,8.1,30.46,SSW,197,1.0,1.0,75,0.00,,,0.00,0,Wunderground v.1.15,2013-02-15 12:50:00,
2013-02-15 06:10:00,14.5,8.3,30.48,SSW,197,1.0,1.0,76,0.00,,,0.00,0,Wunderground v.1.15,2013-02-15 13:10:00,
2013-02-15 06:30:00,14.3,8.7,30.49,SSW,197,0.0,0.0,78,0.00,,,0.00,0,Wunderground v.1.15,2013-02-15 13:30:00,
2013-02-15 06:50:00,14.6,9.0,30.50,SSW,197,0.0,0.0,78,0.00,,,0.00,0,Wunderground v.1.15,2013-02-15 13:50:00,
2013-02-15 07:00:00,14.8,9.2,30.50,SSW,197,0.0,0.0,78,0.00,,,0.00,0,Wunderground v.1.15,2013-02-15 14:00:00,
2013-02-15 07:10:00,15.0,9.4,30.51,SSW,197,0.0,0.0,78,0.00,,,0.00,18,Wunderground v.1.15,2013-02-15 14:10:00,
2013-02-15 07:30:00,15.0,9.4,30.51,SSW,198,0.0,0.0,78,0.00,,,0.00,47,Wunderground v.1.15,2013-02-15 14:30:00,
2013-02-15 07:50:00,15.8,9.0,30.52,SSW,198,2.0,2.0,74,0.00,,,0.00,77,Wunderground v.1.15,2013-02-15 14:50:00,
2013-02-15 08:10:00,16.7,8.6,30.52,SSW,198,1.0,3.0,70,0.00,,,0.00,97,Wunderground v.1.15,2013-02-15 15:10:00,
2013-02-15 08:30:00,18.2,7.3,30.52,West,269,1.0,1.0,62,0.00,,,0.00,199,Wunderground v.1.15,2013-02-15 15:30:00,
2013-02-15 08:50:00,19.4,7.0,30.53,North,355,2.0,2.0,58,0.00,,,0.00,230,Wunderground v.1.15,2013-02-15 15:50:00,
2013-02-15 09:10:00,19.1,6.0,30.53,North,360,9.0,12.0,56,0.00,,,0.00,135,Wunderground v.1.15,2013-02-15 16:10:00,
2013-02-15 09:30:00,20.9,6.4,30.53,NNW,335,12.0,12.0,53,0.00,,,0.00,446,Wunderground v.1.15,2013-02-15 16:30:00,
2013-02-15 09:50:00,21.2,6.3,30.53,NW,321,15.0,18.0,52,0.00,,,0.00,483,Wunderground v.1.15,2013-02-15 16:50:00,
2013-02-15 10:01:00,21.2,5.9,30.52,NNW,339,17.0,19.0,51,0.00,,,0.00,515,Wunderground v.1.15,2013-02-15 17:01:00,
2013-02-15 10:10:00,21.3,5.5,30.52,NW,318,19.0,19.0,50,0.00,,,0.00,545,Wunderground v.1.15,2013-02-15 17:10:00,
2013-02-15 10:20:00,22.1,5.4,30.53,NNW,339,19.0,19.0,48,0.00,,,0.00,580,Wunderground v.1.15,2013-02-15 17:20:00,
2013-02-15 10:30:00,21.7,5.5,30.54,NW,316,22.0,22.0,49,0.00,,,0.00,598,Wunderground v.1.15,2013-02-15 17:30:00,
2013-02-15 10:50:00,22.0,5.3,30.54,NW,311,20.0,21.0,48,0.00,,,0.00,631,Wunderground v.1.15,2013-02-15 17:50:00,
2013-02-15 11:00:00,21.8,6.4,30.55,WNW,299,20.0,20.0,51,0.00,,,0.00,666,Wunderground v.1.15,2013-02-15 18:00:00,
2013-02-15 11:10:00,22.1,6.3,30.55,NW,319,20.0,20.0,50,0.00,,,0.00,684,Wunderground v.1.15,2013-02-15 18:10:00,
2013-02-15 11:20:00,22.2,5.5,30.56,NW,308,20.0,31.0,48,0.00,,,0.00,663,Wunderground v.1.15,2013-02-15 18:20:00,
2013-02-15 11:30:00,22.3,5.6,30.55,NW,317,19.0,19.0,48,0.00,,,0.00,679,Wunderground v.1.15,2013-02-15 18:30:00,
2013-02-15 11:40:00,22.8,5.1,30.55,NNE,16,18.0,18.0,46,0.00,,,0.00,686,Wunderground v.1.15,2013-02-15 18:40:00,
2013-02-15 11:50:00,22.1,5.4,30.55,WNW,292,21.0,21.0,48,0.00,,,0.00,592,Wunderground v.1.15,2013-02-15 18:50:00,
2013-02-15 12:10:00,22.4,5.6,30.54,North,355,18.0,18.0,48,0.00,,,0.00,689,Wunderground v.1.15,2013-02-15 19:10:00,
2013-02-15 12:30:00,23.6,6.8,30.55,NW,322,15.0,26.0,48,0.00,,,0.00,675,Wunderground v.1.15,2013-02-15 19:30:00,
2013-02-15 12:40:00,23.1,8.1,30.54,NW,313,18.0,18.0,52,0.00,,,0.00,598,Wunderground v.1.15,2013-02-15 19:40:00,
2013-02-15 13:00:00,23.3,8.2,30.54,NNW,342,16.0,16.0,52,0.00,,,0.00,680,Wunderground v.1.15,2013-02-15 20:00:00,
2013-02-15 13:10:00,23.2,9.4,30.53,NW,305,14.0,14.0,55,0.00,,,0.00,649,Wunderground v.1.15,2013-02-15 20:10:00,
2013-02-15 13:30:00,23.1,8.5,30.53,West,276,17.0,17.0,53,0.00,,,0.00,476,Wunderground v.1.15,2013-02-15 20:30:00,
2013-02-15 13:40:00,24.2,7.8,30.53,North,349,10.0,24.0,49,0.00,,,0.00,403,Wunderground v.1.15,2013-02-15 20:40:00,
2013-02-15 13:50:00,24.0,8.0,30.52,North,351,13.0,17.0,50,0.00,,,0.00,369,Wunderground v.1.15,2013-02-15 20:50:00,
2013-02-15 14:01:00,24.2,9.1,30.52,West,271,7.0,7.0,52,0.00,,,0.00,455,Wunderground v.1.15,2013-02-15 21:01:00,
2013-02-15 14:10:00,24.7,9.1,30.52,North,355,8.0,8.0,51,0.00,,,0.00,515,Wunderground v.1.15,2013-02-15 21:10:00,
2013-02-15 14:20:00,25.4,9.3,30.52,West,261,4.0,16.0,50,0.00,,,0.00,480,Wunderground v.1.15,2013-02-15 21:20:00,
2013-02-15 14:40:00,25.3,7.9,30.51,NNE,17,3.0,6.0,47,0.00,,,0.00,410,Wunderground v.1.15,2013-02-15 21:40:00,
2013-02-15 15:00:00,25.2,8.2,30.51,NNW,344,3.0,3.0,48,0.00,,,0.00,353,Wunderground v.1.15,2013-02-15 22:00:00,
2013-02-15 15:10:00,24.0,7.6,30.51,SW,221,5.0,12.0,49,0.00,,,0.00,406,Wunderground v.1.15,2013-02-15 22:10:00,
2013-02-15 15:30:00,23.6,7.7,30.50,SSE,159,7.0,12.0,50,0.00,,,0.00,311,Wunderground v.1.15,2013-02-15 22:30:00,
2013-02-15 15:50:00,23.9,8.4,30.50,SE,146,6.0,14.0,51,0.00,,,0.00,278,Wunderground v.1.15,2013-02-15 22:50:00,
2013-02-15 16:00:00,23.6,8.1,30.50,SW,221,6.0,10.0,51,0.00,,,0.00,221,Wunderground v.1.15,2013-02-15 23:00:00,
2013-02-15 16:20:00,21.6,7.1,30.50,SSW,192,7.0,7.0,53,0.00,,,0.00,35,Wunderground v.1.15,2013-02-15 23:20:00,
2013-02-15 16:41:00,20.6,7.4,30.50,SE,140,8.0,8.0,56,0.00,,,0.00,39,Wunderground v.1.15,2013-02-15 23:41:00,
2013-02-15 16:50:00,20.5,7.3,30.50,SE,137,8.0,14.0,56,0.00,,,0.00,30,Wunderground v.1.15,2013-02-15 23:50:00,
2013-02-15 17:00:00,20.3,7.1,30.50,SSE,150,5.0,7.0,56,0.00,,,0.00,21,Wunderground v.1.15,2013-02-16 00:00:00,
2013-02-15 17:20:00,20.4,8.0,30.50,SW,236,6.0,11.0,58,0.00,,,0.00,19,Wunderground v.1.15,2013-02-16 00:20:00,
2013-02-15 17:30:00,20.8,8.7,30.48,West,265,14.0,20.0,59,0.00,,,0.00,14,Wunderground v.1.15,2013-02-16 00:30:00,
2013-02-15 17:41:00,21.4,8.9,30.47,West,275,23.0,29.0,58,0.00,,,0.00,5,Wunderground v.1.15,2013-02-16 00:41:00,
2013-02-15 17:50:00,21.5,9.7,30.47,WNW,292,25.0,29.0,60,0.00,,,0.00,0,Wunderground v.1.15,2013-02-16 00:50:00,
2013-02-15 18:00:00,21.4,10.0,30.47,West,265,21.0,21.0,61,0.00,,,0.00,0,Wunderground v.1.15,2013-02-16 01:00:00,
2013-02-15 18:20:00,21.7,10.3,30.47,WNW,283,25.0,25.0,61,0.00,,,0.00,0,Wunderground v.1.15,2013-02-16 01:20:00,
2013-02-15 18:30:00,21.9,10.5,30.47,WNW,285,23.0,23.0,61,0.00,,,0.00,0,Wunderground v.1.15,2013-02-16 01:30:00,
2013-02-15 18:50:00,22.2,10.8,30.47,SW,236,16.0,16.0,61,0.00,,,0.00,0,Wunderground v.1.15,2013-02-16 01:50:00,
2013-02-15 19:10:00,22.3,10.9,30.45,West,273,10.0,10.0,61,0.00,,,0.00,0,Wunderground v.1.15,2013-02-16 02:10:00,
2013-02-15 19:20:00,22.4,11.3,30.45,WNW,302,17.0,18.0,62,0.00,,,0.00,0,Wunderground v.1.15,2013-02-16 02:20:00,
2013-02-15 19:40:00,23.3,11.4,30.45,WNW,284,19.0,19.0,60,0.00,,,0.00,0,Wunderground v.1.15,2013-02-16 02:40:00,
2013-02-15 19:50:00,23.3,11.4,30.45,SW,228,13.0,13.0,60,0.00,,,0.00,0,Wunderground v.1.15,2013-02-16 02:50:00,
2013-02-15 20:10:00,24.0,11.7,30.47,NW,323,5.0,5.0,59,0.00,,,0.00,0,Wunderground v.1.15,2013-02-16 03:10:00,
2013-02-15 20:20:00,22.9,11.1,30.46,South,183,7.0,7.0,60,0.00,,,0.00,0,Wunderground v.1.15,2013-02-16 03:20:00,
2013-02-15 20:40:00,20.8,10.9,30.46,SSW,202,12.0,12.0,65,0.00,,,0.00,0,Wunderground v.1.15,2013-02-16 03:40:00,
2013-02-15 20:50:00,21.1,11.2,30.46,SSW,202,10.0,10.0,65,0.00,,,0.00,0,Wunderground v.1.15,2013-02-16 03:50:00,
2013-02-15 21:10:00,22.0,11.7,30.46,SW,214,10.0,10.0,64,0.00,,,0.00,0,Wunderground v.1.15,2013-02-16 04:10:00,
2013-02-15 21:20:00,22.0,11.7,30.47,South,189,8.0,10.0,64,0.00,,,0.00,0,Wunderground v.1.15,2013-02-16 04:20:00,
2013-02-15 21:40:00,22.3,11.2,30.46,SE,146,5.0,6.0,62,0.00,,,0.00,0,Wunderground v.1.15,2013-02-16 04:40:00,
2013-02-15 22:01:00,22.6,11.2,30.46,SSW,207,8.0,8.0,61,0.00,,,0.00,0,Wunderground v.1.15,2013-02-16 05:01:00,
2013-02-15 22:10:00,22.7,11.3,30.46,SSE,155,9.0,9.0,61,0.00,,,0.00,0,Wunderground v.1.15,2013-02-16 05:10:00,
2013-02-15 22:30:00,22.9,11.4,30.47,South,177,10.0,10.0,61,0.00,,,0.00,0,Wunderground v.1.15,2013-02-16 05:30:00,
2013-02-15 22:40:00,22.9,11.4,30.47,South,183,10.0,10.0,61,0.00,,,0.00,0,Wunderground v.1.15,2013-02-16 05:40:00,
2013-02-15 23:00:00,22.5,11.1,30.46,ESE,117,8.0,8.0,61,0.00,,,0.00,0,Wunderground v.1.15,2013-02-16 06:00:00,
2013-02-15 23:10:00,23.1,11.3,30.46,SE,144,8.0,11.0,60,0.00,,,0.00,0,Wunderground v.1.15,2013-02-16 06:10:00,
2013-02-15 23:21:00,23.0,11.2,30.45,South,186,6.0,6.0,60,0.00,,,0.00,0,Wunderground v.1.15,2013-02-16 06:21:00,
2013-02-15 23:30:00,23.1,11.3,30.44,SE,136,6.0,10.0,60,0.00,,,0.00,0,Wunderground v.1.15,2013-02-16 06:30:00,
2013-02-15 23:40:00,23.5,11.3,30.43,East,99,7.0,7.0,59,0.00,,,0.00,0,Wunderground v.1.15,2013-02-16 06:40:00,